Location: Hard
(49.9417°N, 12.0858°E)
Time: 17:37:13
(UTC+00:00)

Cosmos 1610 Rocket - Pass Details

Date: 07 June 2020
Orbit: 954 x 1001 km, 82.9° (Epoch: 08 July)

Event Time Altitude Azimuth Distance (km) Brightness Sun altitude
Exits shadow 01:24:10 13° 193° (SSW) 2,454 6.0 -11.5°
Maximum altitude 01:29:42 80° 280° (W) 984 4.5 -11.0°
Drops below altitude 10° 01:35:57 10° 8° (N) 2,726 8.0 -10.5°
Sets 01:38:30 0° 10° (N) 3,684 8.9 -10.2°
